sat.trackr.live / text

‹ back to catalog

STARLINK-34354

NORAD 64314 · 2025-123Z

PAYLOAD ACTIVE UNKNOWN

§ Identity

Operator
Country
US
Launch date
2025-06-08
Launch site
AFWTR
Launch vehicle
Mass (kg)
RCS (m²)

Purposes: comms

External: N2YO · Heavens-Above · Gunter

§ Orbital elements

Epoch: 2026-05-25T00:34:02.362080Z

Period
96.11 min
Inclination
70.0013°
Eccentricity
0.0002550
Mean motion
14.98336263 rev/d
Perigee alt
570.3 km
Apogee alt
573.8 km
Semi-major
6,950.2 km
B*
4.8986e-4
RAAN
1.9529°
Arg perigee
266.0942°
Mean anomaly
93.9925°
Rev number
5,305

§ Raw data

STARLINK-343541 64314U 25123Z   26145.02363845  .00005758  00000+0  48986-3 0  99922 64314  70.0013   1.9529 0002550 266.0942  93.9925 14.98336263 53053

JSON: /api/v1/satellites/64314 · /tle

For live sub-satellite position, see the globe view (requires WebGL).

§ Visibility from observer

Set your observer location to see the next 7 days of passes ≥ 10°. The values pass through the URL so the page stays shareable.

No JS? Fill the form by hand. The geolocation button needs JavaScript.